Location: Juzet
(42.9779°N, 0.7597°E)
Time: 18:10:20
(UTC+00:00)

IDEFIX/ARIANE 42P - Pass Details

Date: 14 July 2020
Orbit: 784 x 804 km, 98.4° (Epoch: 13 August)

Event Time Altitude Azimuth Distance (km) Brightness Sun altitude
Rises 03:33:59 0° 9° (N) 3,291 6.7 -9.2°
Reaches altitude 10° 03:36:21 10° 7° (N) 2,356 5.8 -8.9°
Maximum altitude 03:41:28 62° 288° (WNW) 883 2.7 -8.2°
Drops below altitude 10° 03:46:32 10° 208° (SSW) 2,336 4.4 -7.5°
Enters shadow 03:47:22 - 207° (SSW) 2,665 4.7 -7.4°
